This is the latest recevied weather packets stored in our database for station/object KE5OYL. If no packets are shown the sender has not sent any weather packets the latest 10 day(s).
| Time | Temp. | Humidity | Pressure | Rain* | Wind** | Luminosity | Snow |
|---|---|---|---|---|---|---|---|
| 1777737526 | 20° C | 42% | 1022.8 hPa | 0 mm | - | 633 W/m² | - |
| 1777737224 | 20.56° C | 42% | 1022.8 hPa | 0 mm | - | 621 W/m² | - |
| 1777736919 | 20.56° C | 43% | 1022.7 hPa | 0 mm | - | 606 W/m² | - |
| 1777736311 | 20° C | 42% | 1022.7 hPa | 0 mm | - | 581 W/m² | - |
| 1777736008 | 19.44° C | 44% | 1023 hPa | 0 mm | - | 567 W/m² | - |
| 1777735705 | 18.89° C | 46% | 1023 hPa | 0 mm | - | 552 W/m² | - |
| 1777735403 | 20° C | 46% | 1022.8 hPa | 0 mm | - | 537 W/m² | - |
| 1777735100 | 18.89° C | 47% | 1022.7 hPa | 0 mm | - | 525 W/m² | - |
| 1777734797 | 18.33° C | 52% | 1022.9 hPa | 0 mm | - | 506 W/m² | - |
| 1777734495 | 18.33° C | 56% | 1023 hPa | 0 mm | - | 493 W/m² | - |
| 1777734191 | 18.33° C | 57% | 1022.8 hPa | 0 mm | - | 477 W/m² | - |
| 1777733887 | 18.33° C | 57% | 1022.4 hPa | 0 mm | - | 461 W/m² | - |
| 1777733584 | 18.89° C | 56% | 1022.6 hPa | 0 mm | - | 449 W/m² | - |
| 1777733280 | 17.78° C | 60% | 1022.6 hPa | 0 mm | - | 432 W/m² | - |
| 1777732977 | 17.22° C | 62% | 1022.7 hPa | 0 mm | - | 417 W/m² | - |
| 1777732673 | 17.22° C | 63% | 1022.4 hPa | 0 mm | - | 400 W/m² | - |
| 1777732370 | 17.22° C | 65% | 1022.5 hPa | 0 mm | - | 386 W/m² | - |
| 1777732068 | 16.67° C | 66% | 1022.4 hPa | 0 mm | - | 371 W/m² | - |
| 1777731765 | 16.67° C | 67% | 1022.4 hPa | 0 mm | - | 355 W/m² | - |
| 1777731461 | 16.67° C | 67% | 1022.3 hPa | 0 mm | - | 337 W/m² | - |
| 1777731160 | 16.67° C | 67% | 1022.2 hPa | 0 mm | - | 316 W/m² | - |
| 1777730858 | 16.11° C | 69% | 1022.4 hPa | 0 mm | - | 302 W/m² | - |
| 1777730555 | 15.56° C | 70% | 1022.3 hPa | 0 mm | - | 285 W/m² | - |
| 1777730250 | 16.11° C | 71% | 1022.2 hPa | 0 mm | - | 268 W/m² | - |
| 1777729948 | 15.56° C | 72% | 1022.2 hPa | 0 mm | - | 253 W/m² | - |
* Rain latest hour (hover to see other rain measurements)
** Current wind speed in m/s (hover to see current wind gust speed)